Date String (YYYY-MM-DD hh:mm:ss) UTC,Instrument flags,Ambient pressure (hPa),Sample flow (lpm),Bypass flow (lpm),Sample temperature (°C),Ambient temperature (°C),ASC tube jacket temperature (°C),LED temperature (°C),Box temperature (°C),Sample RH (%),Span deviation,Mass concentration (μg/m³),Mass concentration (μg/m³),Mass concentration (μg/m³)
DateTimeUTC,F1_M11,P_M11,Q1_M11,Q2_M11,T1_M11,T2_M11,T3_M11,T4_M11,T5_M11,U1_M11,ZSPAN_M11,X2_M11,X0_M11,X1_M11
2023-01-28 05:00:00,,0815.3,5.04,0.00,21.6,19.8,00.0,30.7,23.2,12.2,0000.0,0000.94,0002.67,0000.68
2023-01-28 05:01:00,,0815.3,5.02,0.00,21.7,21.1,00.0,30.6,23.5,12.1,0000.0,0000.95,0002.02,0000.70
2023-01-28 05:02:00,,0815.3,5.00,0.00,21.8,22.3,00.0,30.6,23.8,11.7,0000.0,0000.95,0002.05,0000.68
2023-01-28 05:03:00,,0815.3,4.99,0.00,22.0,22.4,00.0,30.7,24.0,11.3,0000.0,0000.95,0002.12,0000.66
2023-01-28 05:04:00,,0815.3,5.00,0.00,22.0,21.8,00.0,30.7,23.8,11.3,0000.0,0000.90,0002.02,0000.64
2023-01-28 05:05:00,,0815.2,5.00,0.00,21.9,21.3,00.0,30.8,23.7,11.3,0000.0,0000.86,0001.90,0000.62
2023-01-28 05:06:00,,0815.2,4.99,0.00,21.9,20.9,00.0,30.8,23.6,11.4,0000.0,0000.85,0001.80,0000.61
2023-01-28 05:07:00,,0815.2,5.00,0.00,21.9,20.7,00.0,30.8,23.6,11.1,0000.0,0000.86,0001.84,0000.60
2023-01-28 05:08:00,,0815.4,5.00,0.00,21.9,20.5,00.0,30.8,23.5,11.5,0000.0,0000.84,0001.72,0000.59
2023-01-28 05:09:00,,0815.1,5.00,0.00,21.8,20.2,00.0,30.8,23.4,11.5,0000.0,0000.82,0001.66,0000.58
2023-01-28 05:10:00,,0815.2,5.01,0.00,21.8,20.0,00.0,30.8,23.4,11.6,0000.0,0000.80,0001.64,0000.58
2023-01-28 05:11:00,,0815.1,5.00,0.00,21.8,19.9,00.0,30.8,23.4,11.4,0000.0,0000.78,0001.55,0000.57
2023-01-28 05:12:00,,0815.3,4.99,0.00,21.7,19.8,00.0,30.7,23.3,11.5,0000.0,0000.76,0001.37,0000.56
2023-01-28 05:13:00,,0815.2,5.01,0.00,21.7,19.8,00.0,30.7,23.3,11.5,0000.0,0000.73,0001.32,0000.55
2023-01-28 05:14:00,,0815.4,5.00,0.00,21.7,19.7,00.0,30.7,23.3,11.7,0000.0,0000.70,0001.23,0000.55
2023-01-28 05:15:00,,0815.4,4.99,0.00,21.6,19.6,00.0,30.7,23.2,11.8,0000.0,0000.72,0001.26,0000.56
2023-01-28 05:16:00,,0815.3,5.02,0.00,21.6,19.4,00.0,30.7,23.1,11.8,0000.0,0000.74,0001.31,0000.55
2023-01-28 05:17:00,,0815.0,4.97,0.00,21.5,19.4,00.0,30.6,23.0,11.5,0000.0,0000.71,0001.25,0000.54
2023-01-28 05:18:00,,0815.0,5.02,0.00,21.6,20.8,00.0,30.5,23.3,10.5,0000.0,0000.68,0001.18,0000.52
2023-01-28 05:19:00,,0815.0,5.00,0.00,21.7,22.0,00.0,30.5,23.6,10.2,0000.0,0000.66,0001.15,0000.49
2023-01-28 05:20:00,,0815.1,4.99,0.00,21.8,22.2,00.0,30.6,23.8,09.9,0000.0,0000.62,0001.08,0000.47
2023-01-28 05:21:00,,0815.2,5.00,0.00,21.8,21.5,00.0,30.6,23.6,09.7,0000.0,0000.59,0000.95,0000.45
2023-01-28 05:22:00,,0815.1,5.00,0.00,21.8,21.0,00.0,30.6,23.5,09.8,0000.0,0000.58,0000.93,0000.42
2023-01-28 05:23:00,,0815.2,4.99,0.00,21.7,20.5,00.0,30.6,23.3,09.9,0000.0,0000.55,0000.89,0000.40
2023-01-28 05:24:00,,0815.1,5.02,0.00,21.7,20.1,00.0,30.6,23.3,09.8,0000.0,0000.52,0000.85,0000.38
2023-01-28 05:25:00,,0815.2,5.00,0.00,21.6,19.9,00.0,30.6,23.2,09.9,0000.0,0000.50,0000.90,0000.36
2023-01-28 05:26:00,,0815.1,4.98,0.00,21.6,19.7,00.0,30.6,23.1,10.3,0000.0,0000.46,0000.81,0000.33
2023-01-28 05:27:00,,0815.1,4.99,0.00,21.5,19.5,00.0,30.6,23.0,10.3,0000.0,0000.41,0000.74,0000.31
2023-01-28 05:28:00,,0814.9,5.02,0.00,21.5,19.4,00.0,30.6,22.9,10.3,0000.0,0000.38,0000.68,0000.30
2023-01-28 05:29:00,,0815.0,4.99,0.00,21.4,19.2,00.0,30.5,22.9,10.1,0000.0,0000.36,0000.62,0000.29
2023-01-28 05:30:00,,0815.1,4.99,0.00,21.4,19.2,00.0,30.5,22.9,10.6,0000.0,0000.36,0000.63,0000.29
2023-01-28 05:31:00,,0815.2,5.00,0.00,21.4,19.6,00.0,30.5,23.0,11.3,0000.0,0000.40,0001.08,0000.30
2023-01-28 05:32:00,,0815.3,4.99,0.00,21.5,21.1,00.0,30.4,23.3,10.8,0000.0,0000.42,0001.15,0000.31
2023-01-28 05:33:00,,0815.4,4.99,0.00,21.6,22.1,00.0,30.4,23.6,11.0,0000.0,0000.45,0001.31,0000.32
2023-01-28 05:34:00,,0815.5,5.02,0.00,21.7,21.8,00.0,30.5,23.6,11.1,0000.0,0000.48,0002.07,0000.33
2023-01-28 05:35:00,,0815.4,4.99,0.00,21.7,21.4,00.0,30.5,23.5,10.8,0000.0,0000.51,0002.08,0000.35
2023-01-28 05:36:00,,0815.3,4.98,0.00,21.7,21.1,00.0,30.5,23.5,10.6,0000.0,0000.54,0002.06,0000.37
2023-01-28 05:37:00,,0815.4,5.01,0.00,21.7,20.7,00.0,30.5,23.4,10.7,0000.0,0000.59,0002.16,0000.39
2023-01-28 05:38:00,,0815.3,4.99,0.00,21.7,20.4,00.0,30.5,23.3,10.9,0000.0,0000.66,0002.30,0000.41
2023-01-28 05:39:00,,0815.2,4.99,0.00,21.6,20.1,00.0,30.5,23.2,10.7,0000.0,0000.69,0002.38,0000.42
2023-01-28 05:40:00,,0815.0,5.01,0.00,21.6,19.8,00.0,30.5,23.1,10.4,0000.0,0000.71,0002.48,0000.43
2023-01-28 05:41:00,,0815.1,5.00,0.00,21.5,19.7,00.0,30.5,23.1,09.9,0000.0,0000.75,0002.82,0000.44
2023-01-28 05:42:00,,0814.9,5.02,0.00,21.5,19.7,00.0,30.5,23.1,10.0,0000.0,0000.73,0002.43,0000.43
2023-01-28 05:43:00,,0815.0,5.01,0.00,21.5,19.8,00.0,30.5,23.2,09.9,0000.0,0000.75,0002.41,0000.42
2023-01-28 05:44:00,,0815.0,4.99,0.00,21.5,19.9,00.0,30.5,23.2,09.8,0000.0,0000.71,0002.84,0000.41
2023-01-28 05:45:00,,0814.9,5.02,0.00,21.5,19.9,00.0,30.5,23.2,09.6,0000.0,0000.68,0003.02,0000.39
2023-01-28 05:46:00,,0814.8,4.98,0.00,21.5,19.8,00.0,30.5,23.1,10.0,0000.0,0000.65,0002.91,0000.37
2023-01-28 05:47:00,,0814.9,5.00,0.00,21.4,19.6,00.0,30.4,23.0,10.3,0000.0,0000.62,0002.93,0000.35
2023-01-28 05:48:00,,0814.9,5.00,0.00,21.4,19.9,00.0,30.4,23.1,10.3,0000.0,0000.60,0002.90,0000.34
2023-01-28 05:49:00,,0814.9,5.00,0.00,21.5,21.1,00.0,30.4,23.4,10.9,0000.0,0000.55,0002.78,0000.34
2023-01-28 05:50:00,,0815.0,5.00,0.00,21.7,22.3,00.0,30.4,23.7,10.8,0000.0,0000.53,0002.70,0000.35
2023-01-28 05:51:00,,0815.1,4.99,0.00,21.8,22.5,00.0,30.4,23.8,11.0,0000.0,0000.56,0002.75,0000.37
2023-01-28 05:52:00,,0815.0,5.02,0.00,21.8,21.9,00.0,30.5,23.7,10.9,0000.0,0000.54,0002.40,0000.38
2023-01-28 05:53:00,,0815.2,4.98,0.00,21.8,21.4,00.0,30.5,23.7,11.0,0000.0,0000.54,0002.34,0000.40
2023-01-28 05:54:00,,0815.2,4.98,0.00,21.8,21.1,00.0,30.6,23.6,11.2,0000.0,0000.56,0002.36,0000.42
2023-01-28 05:55:00,,0815.3,5.00,0.00,21.8,20.8,00.0,30.6,23.6,11.1,0000.0,0000.60,0002.11,0000.45
2023-01-28 05:56:00,,0815.2,5.00,0.00,21.8,20.6,00.0,30.6,23.5,11.2,0000.0,0000.67,0001.23,0000.49
2023-01-28 05:57:00,,0815.0,4.99,0.00,21.8,20.4,00.0,30.6,23.5,11.1,0000.0,0000.70,0001.27,0000.52
2023-01-28 05:58:00,,0814.8,4.99,0.00,21.8,20.4,00.0,30.6,23.5,10.8,0000.0,0000.73,0001.26,0000.54
2023-01-28 05:59:00,,0815.0,5.00,0.00,21.8,20.3,00.0,30.6,23.4,10.2,0000.0,0000.76,0001.30,0000.56
